Simultaneous Nadir Overpasses (SNOs) Predictions

Prediction of SNOs between AQUA and GOES-15 Satellite Orbit:

Table of predicted SNOs for the next 14.0 days since TLE Epoch: 2/23/2018
Index Date Time (AQUA) AQUA Lat,Lon GOES-15 Lat,Lon Distance(km) Time Diff (sec)
1 02/25/2018 10:38:36 0.04,-135.60 0.01,-135.42 19.93 80
2 02/27/2018 10:26:26 -0.60,-132.65 0.01,-135.40 314.39 80
3 02/27/2018 22:47:50 -0.55,-137.83 -0.01,-135.38 278.43 80
4 03/01/2018 22:35:40 0.11,-134.88 -0.01,-135.36 55.60 80
5 03/03/2018 22:23:29 0.71,-131.91 -0.01,-135.34 389.39 80
6 03/04/2018 10:44:45 0.37,-137.07 0.01,-135.35 195.42 80
7 03/06/2018 10:32:34 -0.23,-134.11 0.01,-135.32 137.94 80
8 03/06/2018 22:53:59 -0.84,-139.30 -0.01,-135.30 455.07 80
9 03/08/2018 10:20:24 -0.89,-131.16 0.01,-135.29 470.74 80
10 03/08/2018 22:41:48 -0.24,-136.34 -0.01,-135.26 122.34 80




NCC Satellite Simultaneous Nadir Overpasses (SNOs) Prediction Service
